Temp
37 36 37 39 38 37 37 38 37 36 36 35 37 37 36 36 36 36 35 35 34 34 34 33 32 31 31 30 28 27 27 26 26 25 25 26 26 26 27 28 26 26 26 25
36 36 38 38 37 37 37 37 38 38 36 36 36 36 38 36 36 37 36 35 35 35 34 33 32 32 31 30 28 27 27 26 25 25 25 26 27 27 27 28 27 26 26 26
36 38 37 37 37 36 37 37 37 37 37 38 38 36 37 37 37 38 37 37 36 35 35 34 32 32 31 30 28 27 26 26 25 25 26 26 27 27 27 28 27 27 26 26
37 37 36 36 36 37 36 37 37 36 36 35 39 36 38 37 37 37 38 37 36 36 36 34 33 32 32 30 29 27 26 25 25 26 26 26 26 26 27 28 27 26 26 25
36 36 35 35 36 36 36 36 36 36 36 36 37 37 39 38 37 37 38 34 36 37 36 36 35 33 32 32 29 28 26 26 25 25 25 26 26 26 27 28 28 27 26 25
36 36 35 35 35 35 36 35 35 36 36 34 37 37 38 38 37 36 32 30 31 27 31 37 35 34 33 32 31 29 26 26 25 25 26 25 26 27 28 27 28 27 26 25
35 35 35 34 34 36 35 35 34 35 35 35 39 38 38 38 38 37 35 34 32 25 34 33 31 35 33 33 32 31 27 26 25 25 25 25 26 27 27 28 28 27 27 26
34 33 34 35 34 33 34 35 33 32 35 36 39 37 35 37 37 37 37 36 36 36 36 36 35 32 33 34 33 32 28 26 26 25 25 25 25 26 26 26 28 28 28 28
34 34 34 34 34 34 34 33 35 34 36 35 38 36 36 37 36 36 36 35 35 35 35 34 35 34 33 32 31 33 32 27 26 26 26 25 25 25 26 26 27 28 28 29
33 32 34 33 34 34 33 34 33 35 32 33 36 37 36 35 35 35 35 34 34 34 34 34 34 33 32 32 31 29 33 29 27 26 26 25 25 25 25 26 27 27 28 28
33 32 33 33 33 33 33 33 33 34 34 33 33 35 35 35 35 34 34 33 33 33 33 33 32 32 31 30 30 28 29 30 29 27 27 26 26 25 25 25 26 27 27 28
32 32 32 33 35 34 33 32 33 32 32 34 34 34 36 35 35 34 33 33 32 32 32 32 31 30 29 29 28 26 26 28 31 28 27 27 26 26 25 25 25 27 27 27
30 31 30 32 34 34 32 32 33 33 33 31 31 33 36 35 35 34 33 33 32 31 31 30 30 29 28 27 27 26 24 25 26 29 28 28 27 26 26 26 25 26 26 26
28 30 29 29 30 31 31 32 32 32 31 31 32 33 34 34 32 32 32 32 31 30 30 29 28 27 26 25 25 25 24 23 24 24 29 28 28 27 27 26 26 26 26 26
29 27 29 29 30 30 30 30 31 30 31 30 31 31 32 32 31 30 29 29 29 29 29 29 28 26 25 24 24 24 24 23 22 23 23 27 28 28 28 28 27 27 26 26
29 27 28 27 29 29 29 30 30 30 30 30 30 30 32 32 30 28 27 27 26 26 27 27 27 25 25 24 23 23 23 24 22 21 22 24 26 28 28 28 28 27 27 26
28 28 27 26 28 29 28 29 30 30 30 30 28 27 28 28 27 26 26 26 25 26 25 24 25 25 24 23 23 23 22 22 22 21 22 23 24 27 28 28 28 28 27 26
27 26 26 25 27 25 29 30 29 28 28 28 27 27 26 26 26 26 26 26 26 25 24 24 24 24 24 23 22 22 22 21 21 22 21 22 24 25 26 26 26 27 26 26
28 27 26 25 26 28 29 27 26 25 25 27 25 24 25 25 25 25 26 25 23 24 24 24 23 23 23 22 22 20 20 21 21 21 21 22 23 23 24 25 25 25 25 25
28 27 25 25 24 24 25 26 26 26 24 24 24 23 23 23 21 23 22 23 23 23 23 23 23 23 22 22 20 19 19 21 21 21 22 22 22 22 22 24 24 24 23 23
26 25 25 25 25 26 25 26 26 22 22 22 23 22 22 21 21 20 21 21 21 22 22 22 23 22 21 21 19 19 19 19 19 19 20 21 21 22 22 22 23 23 22 23
25 25 25 26 25 23 25 25 23 22 22 22 21 20 19 19 19 19 20 19 20 21 21 20 19 19 19 18 17 17 17 17 16 16 18 19 20 21 21 21 21 21 21 21
24 25 24 24 24 25 26 25 24 22 21 20 19 18 17 15 15 15 17 17 16 16 17 17 17 16 14 12 12 13 14 14 13 14 17 19 19 20 21 21 21 22 22 21
26 26 24 24 25 22 24 25 24 21 19 19 18 16 13 11 10 10 10 10 10 10 11 12 12 12 10 9 9 9 11 12 12 13 16 18 18 18 19 20 20 20 20 20
26 25 24 24 22 21 19 20 21 20 18 17 15 13 10 9 9 8 8 8 8 8 8 9 10 9 9 8 8 8 9 11 12 15 16 17 17 17 17 17 17 17 17 18
25 24 23 23 24 23 23 23 20 19 16 15 13 12 10 9 8 8 7 7 7 7 7 8 8 9 7 7 8 8 10 11 14 14 14 16 17 16 15 15 15 16 17 17
Height
737 750 753 732 734 741 746 745 750 753 749 758 750 750 746 744 746 749 753 759 762 764 768 777 784 789 794 800 806 813 816 820 823 828 831 833 835 838 837 839 840 843 846 848
752 757 731 727 735 744 746 750 747 741 743 750 752 751 731 738 742 740 744 750 755 759 763 771 780 785 790 796 802 809 814 817 821 825 828 830 831 833 835 837 838 840 844 846
755 740 733 741 747 754 749 753 749 749 742 738 742 757 743 733 730 729 733 737 745 751 757 765 775 781 787 792 799 805 810 814 818 823 825 828 828 829 831 832 834 838 840 844
745 738 748 751 757 751 764 743 747 752 762 775 729 774 738 733 730 733 729 731 736 741 748 757 767 775 781 787 794 801 807 811 814 818 821 822 824 827 828 829 831 833 837 841
755 748 754 760 754 748 759 747 757 756 763 761 752 762 736 724 736 734 725 735 732 730 738 748 758 767 776 782 788 795 802 808 812 814 816 819 821 823 825 826 828 829 832 836
748 740 748 752 749 753 751 760 757 753 758 783 753 754 747 732 731 734 742 749 753 749 749 736 744 755 766 775 782 788 795 801 808 811 813 815 817 819 820 822 823 826 828 831
754 755 747 753 763 747 755 763 781 780 778 775 725 745 740 722 721 731 745 746 748 760 747 743 759 748 756 764 772 780 787 793 799 806 809 811 813 815 816 817 818 820 824 826
766 782 757 752 762 772 764 767 786 804 780 765 725 753 759 728 725 729 736 741 744 747 747 748 752 761 756 760 764 770 776 784 790 795 802 806 809 811 813 814 815 814 816 819
768 770 753 756 756 761 768 778 757 773 757 769 743 745 737 730 738 740 745 749 754 753 752 755 756 758 764 771 773 767 768 773 779 785 791 797 803 806 807 809 812 812 813 814
766 786 754 760 759 758 769 759 785 768 800 800 763 749 748 744 747 746 751 755 758 759 758 760 763 765 768 768 768 769 764 764 767 774 781 788 793 799 803 805 805 808 810 811
765 775 770 763 766 771 771 777 773 770 776 795 791 772 740 747 749 754 756 761 764 766 765 767 769 770 771 771 771 770 765 757 759 765 772 779 785 791 797 800 801 803 805 807
771 776 783 768 749 753 764 775 775 790 791 773 780 775 736 745 749 754 760 766 769 770 770 772 774 777 777 777 774 772 767 758 751 754 761 768 775 782 788 792 795 798 800 802
783 781 792 778 762 754 775 772 770 771 773 790 799 782 739 746 750 755 761 764 768 772 773 775 777 779 781 779 775 770 768 763 760 754 753 760 765 771 777 782 787 790 793 796
789 788 795 802 786 776 786 775 771 776 791 787 779 770 752 755 765 762 763 763 767 771 774 776 779 781 783 782 778 771 765 765 761 756 751 751 755 760 765 772 779 783 785 788
791 804 794 788 783 781 784 783 779 784 781 792 781 778 768 762 765 770 773 773 774 775 776 775 777 781 784 784 781 775 769 763 761 759 756 754 747 752 757 762 768 772 778 780
785 802 795 802 788 784 786 779 779 779 779 780 780 784 766 762 766 776 781 783 784 783 780 778 776 780 783 783 782 778 773 765 761 759 756 751 749 746 748 752 756 761 765 771
791 796 803 810 791 788 795 780 777 777 774 778 792 790 779 782 782 784 784 785 787 784 782 782 781 781 780 780 780 777 773 768 761 757 753 749 746 742 741 745 747 750 756 760
795 802 806 812 801 821 779 766 773 782 783 782 787 787 787 790 787 784 784 786 784 783 785 783 782 780 777 776 776 774 771 766 761 754 750 746 743 741 741 744 745 747 749 751
788 796 807 813 805 790 779 785 790 798 801 789 798 797 795 793 791 789 784 784 787 784 782 781 780 778 775 773 771 770 767 761 757 751 746 742 739 738 736 737 741 741 745 748
787 793 813 811 821 823 801 791 788 792 812 797 799 800 801 799 804 793 790 788 784 781 779 776 774 773 771 769 768 765 763 756 751 746 741 737 733 732 731 731 732 733 734 732
797 803 810 804 806 796 795 792 790 817 817 803 802 803 802 805 804 795 793 789 785 780 776 773 767 765 765 765 763 761 758 752 747 741 736 731 727 724 724 724 725 727 735 737
802 808 805 797 802 815 794 794 811 808 800 800 803 806 807 805 800 796 790 785 781 774 771 770 767 765 762 761 761 757 753 749 744 737 730 725 721 718 718 719 720 722 724 729
807 798 807 809 806 792 790 793 795 799 804 808 811 811 811 812 810 802 792 786 782 776 771 769 768 765 762 762 763 756 748 744 739 732 725 719 715 711 712 714 717 719 720 723
786 784 798 800 794 801 795 790 794 801 808 810 813 815 819 820 817 811 806 799 792 788 780 775 773 770 768 765 759 752 744 738 733 727 721 714 712 709 710 711 711 713 719 722
787 787 793 796 799 802 806 806 799 805 810 815 819 823 825 822 817 814 809 803 798 793 789 781 778 775 769 762 754 746 737 730 724 720 717 713 712 708 710 711 714 716 720 724
787 792 798 802 788 792 794 791 800 805 813 820 824 822 824 823 820 817 811 807 801 796 791 784 781 774 765 758 751 741 732 724 716 714 713 713 711 712 711 711 715 720 721 724
Wind_Speed
14 10 11 9 9 8 10 6 4 12 7 4 4 1 15 16 14 15 16 16 15 15 16 22 21 21 22 21 23 20 22 20 25 20 17 16 15 16 14 15 16 19 16 15
11 11 12 8 8 6 10 10 9 13 10 7 3 11 11 20 17 16 15 17 16 15 17 20 21 22 22 24 25 24 22 20 23 21 22 18 21 22 20 17 18 14 15 15
13 4 7 4 7 10 10 11 13 5 4 12 11 10 15 19 18 17 17 17 16 17 17 17 20 22 21 25 25 26 24 25 24 22 21 20 18 17 9 19 22 19 15 16
7 9 5 1 7 8 12 11 10 8 9 11 11 6 11 15 18 13 15 18 20 18 17 18 21 21 22 26 27 26 25 25 27 27 23 21 17 15 15 14 21 23 22 20
3 4 3 5 8 6 6 12 9 11 12 13 14 8 7 17 12 18 20 7 8 19 20 21 21 26 23 24 29 28 30 25 24 28 24 23 21 21 21 23 19 23 24 23
7 8 3 9 8 3 9 12 14 15 13 11 14 11 12 11 10 12 14 12 4 5 16 18 28 30 27 25 26 30 33 31 27 26 30 22 26 24 20 25 22 24 24 27
5 7 6 2 9 11 9 13 10 9 9 11 16 11 5 14 19 21 17 16 17 15 11 5 11 20 27 27 27 28 35 34 33 27 28 27 22 29 25 16 23 23 22 24
8 10 7 7 5 8 8 8 6 7 8 10 9 4 10 16 17 18 15 15 14 14 14 15 9 4 1 22 29 28 35 36 35 36 30 28 28 23 24 19 19 22 23 26
6 5 7 1 3 6 6 3 14 9 13 9 7 20 17 18 16 14 14 13 12 10 12 13 15 20 12 8 17 24 29 38 39 38 36 33 31 29 25 25 24 20 25 20
6 6 9 12 2 9 8 11 7 5 4 6 11 8 4 19 16 13 13 14 11 11 12 11 12 16 17 19 23 30 24 34 41 39 37 35 33 32 31 27 32 25 21 27
11 5 0 2 9 9 7 7 6 10 8 10 10 7 17 17 14 11 13 13 11 10 10 11 13 18 18 21 24 28 29 31 39 39 36 34 33 32 32 32 27 29 29 23
10 6 10 11 5 4 7 12 12 9 8 9 10 11 17 14 12 7 10 8 8 9 10 10 12 17 20 21 23 26 31 36 33 41 38 37 35 34 33 34 33 27 29 28
11 4 7 12 13 10 3 5 9 10 13 15 11 5 14 10 4 13 9 8 7 7 9 10 12 12 16 22 23 27 29 29 34 32 39 36 36 35 35 35 34 34 30 31
5 8 8 10 17 14 10 12 10 10 9 12 13 16 16 10 16 16 14 10 7 6 7 8 9 12 19 24 27 27 29 30 29 33 29 36 35 37 37 36 33 33 35 32
4 8 10 13 16 16 16 16 16 16 16 16 17 20 20 20 17 16 17 17 16 12 11 9 9 8 13 18 25 27 29 29 28 27 26 19 36 35 35 34 36 35 35 34
6 10 9 12 15 16 16 15 14 17 17 18 18 20 17 15 15 16 15 16 16 16 18 17 9 12 13 15 20 25 30 31 28 27 25 24 23 34 35 34 34 37 36 36
9 7 9 14 14 15 13 10 10 11 8 11 11 17 19 19 17 14 15 16 16 15 13 14 11 13 13 16 20 23 25 32 29 27 26 25 23 21 34 35 33 33 35 34
7 7 7 10 12 13 11 7 7 10 11 15 18 19 18 18 18 17 14 15 16 11 13 13 15 19 17 17 20 23 25 27 30 28 28 25 22 15 22 32 31 32 31 31
8 5 8 8 11 13 11 16 9 8 9 12 12 14 17 19 20 17 17 15 17 16 15 18 21 22 25 19 19 23 30 26 26 30 28 27 24 19 16 24 30 32 28 29
5 3 4 9 10 12 8 11 8 6 9 11 12 14 18 18 14 13 21 22 22 26 25 22 21 24 21 21 20 23 30 26 25 30 29 26 28 23 21 23 24 20 23 25
6 6 9 10 11 5 10 11 12 8 9 16 16 17 19 16 14 22 23 23 28 29 28 31 29 17 17 19 22 23 27 27 28 30 30 28 29 26 27 25 25 24 26 20
4 6 9 11 12 4 11 10 9 9 13 16 18 19 20 20 21 21 20 19 22 23 24 21 20 19 17 19 24 26 26 28 30 36 33 32 30 25 25 26 25 24 22 23
4 6 5 5 8 10 9 8 5 7 10 13 14 14 17 17 20 20 20 20 22 24 18 16 16 17 19 21 22 28 30 27 31 34 31 29 18 15 16 20 22 20 16 15
5 6 7 7 7 14 16 13 9 11 10 11 12 13 15 14 15 17 17 15 16 19 20 18 17 17 19 20 23 32 31 29 29 30 25 13 7 5 5 5 8 13 11 12
8 4 8 9 3 4 1 20 11 8 10 13 14 14 12 13 13 12 11 15 17 18 19 18 16 16 18 23 30 34 34 26 24 24 17 9 8 16 20 20 17 17 14 11
7 7 7 9 6 8 10 8 11 9 11 11 10 10 13 11 11 15 12 17 17 19 19 19 19 17 23 29 33 35 29 11 3 12 10 12 13 12 19 25 26 17 14 11
Wind_Direction
232 261 249 284 56 110 298 306 133 130 154 217 300 224 167 175 196 181 176 181 186 185 177 168 186 182 175 175 166 183 180 169 170 175 197 201 188 195 223 199 180 166 183 197
262 232 267 70 50 339 305 307 305 143 171 210 199 295 204 174 190 197 182 178 188 185 171 166 180 182 184 174 170 178 184 181 177 187 192 209 203 199 207 205 178 169 185 203
240 53 40 14 308 288 274 277 314 322 155 218 235 197 262 168 182 201 187 177 185 184 179 172 176 183 186 173 175 178 186 185 186 199 197 211 199 229 253 200 184 190 195 207
249 85 347 297 287 271 275 23 340 345 301 285 315 254 185 173 183 184 199 180 179 185 184 169 174 186 188 176 177 184 188 188 193 200 201 203 193 218 219 217 190 195 197 207
100 32 223 241 268 11 301 7 323 298 283 279 269 261 273 175 186 198 200 135 197 177 177 177 181 180 196 191 180 184 185 195 199 207 213 203 202 207 213 218 231 188 195 200
287 33 315 350 1 318 306 295 269 254 252 258 253 252 268 191 63 121 99 127 12 343 300 183 175 176 185 195 190 183 182 191 202 203 215 215 205 223 212 209 211 188 193 198
198 225 111 269 272 216 230 252 268 238 216 238 225 213 119 112 118 107 128 137 134 170 179 110 334 177 179 189 195 189 182 187 195 206 212 222 221 222 230 225 211 186 198 197
202 175 179 103 360 350 331 328 306 319 333 345 46 91 92 87 90 95 94 77 60 47 43 27 55 81 121 193 193 197 185 189 193 198 207 216 222 224 233 237 226 214 201 207
327 106 103 51 1 312 21 287 342 313 289 275 276 109 127 128 126 116 101 85 63 43 42 28 7 20 54 348 336 212 197 191 194 197 201 208 216 222 224 227 233 225 225 221
5 298 169 117 245 237 251 329 308 234 281 268 277 258 290 149 136 112 88 77 54 27 24 22 5 355 2 352 342 330 231 198 195 197 199 204 209 215 222 227 230 233 228 235
317 268 221 73 244 262 176 239 211 263 287 305 301 82 62 93 109 102 74 57 37 19 15 13 353 358 346 344 338 335 323 309 196 195 198 202 208 214 219 225 232 228 231 231
35 312 289 271 115 59 307 303 303 294 288 262 270 289 109 115 117 112 89 81 46 360 4 12 1 352 349 341 338 340 337 337 196 194 197 200 204 210 217 222 225 229 226 233
3 281 282 245 234 174 246 308 282 264 277 275 290 276 110 107 115 54 44 20 39 11 5 354 3 356 358 347 339 338 342 338 347 203 196 200 202 206 215 221 223 222 227 227
328 287 285 295 320 324 314 302 301 289 287 288 272 274 281 6 2 351 346 348 18 9 347 351 348 20 1 344 338 336 337 338 340 347 208 200 205 207 211 218 222 223 222 223
271 286 307 307 310 307 302 295 293 285 283 280 286 297 315 329 336 27 16 11 6 356 343 328 337 8 349 337 338 333 331 329 337 335 333 260 208 211 212 214 218 221 222 223
271 271 283 281 279 273 276 268 268 276 283 285 288 289 300 331 5 8 360 354 348 336 331 325 353 1 341 339 324 324 325 324 325 325 316 311 304 214 213 216 216 216 217 221
303 297 299 288 304 301 280 272 278 308 301 322 323 358 350 349 348 347 338 343 327 310 343 357 350 332 325 326 316 319 317 314 313 311 308 306 297 251 217 219 219 218 218 216
281 263 279 280 280 268 272 12 330 319 335 360 340 333 343 348 336 328 331 318 308 338 328 324 320 315 317 317 315 310 309 300 302 298 301 296 284 282 239 236 237 231 223 221
293 303 291 287 275 289 320 49 36 14 320 343 359 343 333 333 326 311 305 332 333 322 312 309 312 314 304 318 314 319 309 296 293 293 291 289 282 260 261 240 238 237 234 232
239 164 273 285 300 291 62 44 18 342 283 12 343 332 333 331 311 312 338 325 317 309 301 294 291 291 311 309 321 320 306 300 289 290 289 287 291 270 246 241 236 233 231 242
219 205 253 263 263 259 24 3 340 280 355 359 347 336 328 324 320 317 316 308 301 303 311 312 288 290 304 316 321 309 300 300 304 305 298 295 280 260 250 243 233 247 247 240
275 286 285 287 280 272 351 333 342 2 346 344 348 343 331 324 319 311 306 306 298 297 300 305 321 305 309 331 324 308 299 298 301 299 290 289 284 257 237 236 237 235 236 238
221 239 317 331 322 331 302 333 38 28 3 357 352 347 348 348 332 324 320 327 335 330 327 336 331 342 344 334 320 308 302 302 299 295 290 283 274 264 246 232 230 217 230 236
193 224 247 266 310 9 342 336 27 39 17 8 9 1 14 359 359 358 355 349 352 357 358 357 357 346 334 330 321 314 299 292 286 285 280 240 217 152 181 125 192 160 170 156
291 207 260 271 57 19 241 275 59 41 45 27 25 29 29 16 13 4 354 353 352 357 352 7 355 348 342 344 337 326 313 288 274 280 252 250 160 134 116 109 106 113 121 134
2 342 305 318 21 345 354 33 68 57 53 59 37 22 27 25 14 5 6 7 350 353 352 357 345 1 2 354 340 330 325 315 152 54 20 246 179 142 115 107 97 98 107 113